Location: Newark
(48.5667°N, 3.3000°E)
Time: 06:28:28
(UTC+00:00)

N. Korean satellite - Pass Details

Date: 27 October 2019
Orbit: 456 x 506 km, 97.2° (Epoch: 12 November)

Event Time Altitude Azimuth Distance (km) Brightness Sun altitude
Rises 17:08:12 0° 180° (S) 2,472 10.3 -5.9°
Reaches altitude 10° 17:10:17 10° 187° (S) 1,608 9.5 -6.3°
Maximum altitude 17:13:36 44° 261° (W) 656 7.9 -6.8°
Drops below altitude 10° 17:17:00 10° 335° (NNW) 1,645 9.4 -7.4°
Sets 17:19:09 0° 342° (NNW) 2,537 10.3 -7.7°
